TimeCST,TemperatureF,Dew PointF,Humidity,Sea Level PressureIn,VisibilityMPH,Wind Direction,Wind SpeedMPH,Gust SpeedMPH,PrecipitationIn,Events,Conditions,WindDirDegrees,DateUTC
6:00 AM,72,65,74,29.84,12,East,2.3,,,,Overcast,100,2013-04-29 12:00:00
6:00 AM,71.6,66.2,83,29.82,-9999.0,East,2.3,-,N/A,,Clear,100,2013-04-29 12:00:00
7:00 AM,77.0,66.2,69,29.85,-9999.0,SE,3.5,-,N/A,,Clear,130,2013-04-29 13:00:00
8:00 AM,84.2,66.2,55,29.86,-9999.0,ESE,2.3,-,N/A,,Clear,110,2013-04-29 14:00:00
9:00 AM,87,64,37,29.87,12,SSE,3.5,,,,Clear,150,2013-04-29 15:00:00
9:00 AM,86.0,64.4,48,29.86,-9999.0,SSE,3.5,-,N/A,,Clear,150,2013-04-29 15:00:00
10:00 AM,89.6,64.4,43,29.85,6.2,South,4.6,-,N/A,,Mostly Cloudy,190,2013-04-29 16:00:00
11:00 AM,93.2,60.8,34,29.83,6.2,SW,4.6,-,N/A,,Mostly Cloudy,220,2013-04-29 17:00:00
12:00 PM,93,60,24,29.83,12,NNE,6.9,,,,Partly Cloudy,30,2013-04-29 18:00:00
12:00 PM,93.2,60.8,34,29.81,6.2,NNE,6.9,-,N/A,,Scattered Clouds,30,2013-04-29 18:00:00
1:00 PM,91.4,66.2,43,29.78,6.2,West,12.7,-,N/A,,Scattered Clouds,270,2013-04-29 19:00:00
2:00 PM,91.4,66.2,43,29.76,6.2,West,10.4,-,N/A,,Scattered Clouds,270,2013-04-29 20:00:00
3:00 PM,91,62,28,29.76,12,West,13.8,,,,Overcast,280,2013-04-29 21:00:00
3:00 PM,91.4,62.6,38,29.75,6.2,West,13.8,-,N/A,,Scattered Clouds,280,2013-04-29 21:00:00
4:00 PM,87.8,64.4,46,29.75,6.2,West,13.8,-,N/A,,Scattered Clouds,260,2013-04-29 22:00:00
5:00 PM,86.0,66.2,51,29.76,6.2,West,11.5,-,N/A,,Scattered Clouds,280,2013-04-29 23:00:00
6:00 PM,84,66,46,29.78,12,SW,8.1,,,,Overcast,230,2013-04-30 00:00:00
6:00 PM,84.2,66.2,55,29.77,6.2,SW,8.1,-,N/A,,Mostly Cloudy,230,2013-04-30 00:00:00
7:00 PM,82.4,68.0,62,29.79,6.2,NW,3.5,-,N/A,,Mostly Cloudy,310,2013-04-30 01:00:00
8:00 PM,80.6,69.8,70,29.81,6.2,WNW,2.3,-,N/A,,Mostly Cloudy,300,2013-04-30 02:00:00